Home   Weather   Fulda   Past weeks

Flag for Germany Past Weather in Fulda, Hesse, Germany — Yesterday and Last 2 Weeks

Now
29 °F

Partly sunny.


Feels Like: 29 °F
Forecast: 9 / 23 °F
Wind: 2 mph from Northeast

Location: Fritzlar

Current Time: Jan 18, 2017 at 5:14:23 pm

Latest Report: Jan 18, 2017 at 3:00 pm


Visibility: 16 mi

Pressure: 30.71 "Hg

Humidity: 68%

Dew Point: 20 °F

Location of FuldaLocation

Past Weather in Fulda — Graph

°F

Fulda Temperature Yesterday

Maximum temperature yesterday: 30 °F (at 3:00 pm)
Minimum temperature yesterday: 22 °F (at 11:00 pm)
Average temperature yesterday: 28 °F

High & Low Weather Summary for the Past Weeks

 TemperatureHumidityPressure
High40 °F (Jan 4, 2:00 pm)96% (Jan 8, 6:00 pm)30.82 "Hg (Jan 8, 6:00 pm)
Low12 °F (Jan 6, 9:00 pm)54% (Jan 5, 2:00 pm)29.00 "Hg (Jan 13, 3:00 am)
Average30 °F82%30.17 "Hg
* Reported Jan 3 3:00 pm — Jan 18 3:00 pm, Fulda, Weather by CustomWeather, © 2017

Note: Actual official high and low records may vary slightly from our data, if they occured in-between our weather recording intervals... More about our weather records

Advertising

Fulda Weather History for the Previous 24 Hours

Scroll right to see more
 ConditionsComfort  
Time TempWeatherWind HumidityBarometerVisibility
3:00 pm
Wed, Jan 18
29 °FPartly sunny.2 mph68%30.71 "Hg16 mi
2:00 pm29 °FPartly sunny.2 mph69%30.72 "Hg16 mi
12:00 pm27 °FPartly sunny.2 mph71%30.73 "Hg16 mi
11:00 am26 °FPartly sunny.2 mph75%30.76 "Hg16 mi
9:00 am22 °FScattered clouds.2 mph83%30.75 "Hg16 mi
8:00 am24 °FPassing clouds.2 mph79%30.73 "Hg16 mi
6:00 am24 °FOvercast.2 mph81%30.72 "Hg12 mi
5:00 am22 °FOvercast.1 mph88%30.73 "Hg12 mi
3:00 am21 °FOvercast.3 mph88%30.73 "Hg9 mi
2:00 am21 °FOvercast.2 mph89%30.73 "Hg9 mi
12:00 am20 °FPassing clouds.3 mph90%30.73 "Hg9 mi
11:00 pm
Tue, Jan 17
22 °FPassing clouds.1 mph87%30.72 "Hg9 mi
9:00 pm25 °FPassing clouds.2 mph81%30.70 "Hg12 mi
8:00 pm27 °FPassing clouds.2 mph79%30.69 "Hg12 mi
6:00 pm30 °FOvercast.3 mph69%30.66 "Hg12 mi
5:00 pm30 °FOvercast.3 mph72%30.65 "Hg12 mi
Weather by CustomWeather, © 2017

See weather overviewHow to use our weather pages